• In Belgien
  • Länderverzeichnis
  • Für 7 Tage
  • Wassertemperatur
  • Satellitenkarten
  • Wetterkarte
  • Widgets
  • user-avatar
    Anmelden

    Stündliche Wetter Borovoy

    Heute, 21 Oktober, Sonntag

    Zeit Temperatur Niederschläge Wind Luftdruck Luftfeuchtigkeit
    00:00 -1°C° 0 mm 2 m/S 743 mmHg 84%
    01:00 -2°C° 0 mm 2 m/S 744 mmHg 84%
    02:00 -2°C° 0 mm 3 m/S 744 mmHg 83%
    03:00 -2°C° 0 mm 3 m/S 744 mmHg 81%
    04:00 -2°C° 0 mm 3 m/S 745 mmHg 79%
    05:00 -2°C° 0 mm 3 m/S 745 mmHg 78%
    06:00 -3°C° 0 mm 4 m/S 746 mmHg 77%
    07:00 -3°C° 0 mm 4 m/S 746 mmHg 76%
    08:00 -3°C° 0 mm 4 m/S 747 mmHg 74%
    09:00 -2°C° 0 mm 4 m/S 747 mmHg 71%
    10:00 -2°C° 0 mm 5 m/S 748 mmHg 68%
    11:00 -2°C° 0 mm 5 m/S 748 mmHg 66%
    12:00 -2°C° 0 mm 4 m/S 749 mmHg 64%
    13:00 -1°C° 0 mm 4 m/S 749 mmHg 63%
    14:00 -1°C° 0 mm 4 m/S 750 mmHg 63%
    15:00 -2°C° 0 mm 4 m/S 750 mmHg 64%
    16:00 -1°C° 0 mm 3 m/S 751 mmHg 64%
    17:00 -1°C° 0 mm 3 m/S 751 mmHg 66%
    18:00 -1°C° 0 mm 3 m/S 751 mmHg 68%
    19:00 -2°C° 0 mm 3 m/S 752 mmHg 69%
    20:00 -2°C° 0 mm 3 m/S 752 mmHg 71%
    21:00 -2°C° 0 mm 3 m/S 752 mmHg 72%
    22:00 -2°C° 0 mm 3 m/S 753 mmHg 74%
    23:00 -3°C° 0 mm 2 m/S 753 mmHg 76%

    Morgen, 22 Oktober, Montag

    Zeit Temperatur Niederschläge Wind Luftdruck Luftfeuchtigkeit
    00:00 -3°C° 0 mm 2 m/S 753 mmHg 77%
    01:00 -4°C° 0 mm 2 m/S 754 mmHg 79%
    02:00 -4°C° 0 mm 2 m/S 754 mmHg 79%
    03:00 -4°C° 0 mm 2 m/S 754 mmHg 79%
    04:00 -4°C° 0 mm 2 m/S 754 mmHg 79%
    05:00 -4°C° 0 mm 2 m/S 754 mmHg 79%
    06:00 -4°C° 0 mm 2 m/S 754 mmHg 79%
    07:00 -4°C° 0 mm 2 m/S 754 mmHg 78%
    08:00 -3°C° 0 mm 2 m/S 754 mmHg 73%
    09:00 -2°C° 0 mm 2 m/S 754 mmHg 67%
    10:00 -1°C° 0 mm 2 m/S 754 mmHg 61%
    11:00 +1°C° 0 mm 2 m/S 754 mmHg 58%
    12:00 +1°C° 0 mm 3 m/S 753 mmHg 56%
    13:00 +2°C° 0 mm 3 m/S 753 mmHg 54%
    14:00 +1°C° 0 mm 3 m/S 752 mmHg 59%
    15:00 +1°C° 0 mm 3 m/S 752 mmHg 65%
    16:00 +1°C° 0 mm 3 m/S 752 mmHg 70%
    17:00 +1°C° 0.1 mm 3 m/S 751 mmHg 71%
    18:00 0°C° 0.1 mm 4 m/S 751 mmHg 73%
    19:00 0°C° 0.1 mm 4 m/S 750 mmHg 74%
    20:00 0°C° 0.1 mm 4 m/S 749 mmHg 74%
    21:00 0°C° 0.1 mm 4 m/S 749 mmHg 74%
    22:00 0°C° 0.1 mm 4 m/S 748 mmHg 73%
    23:00 0°C° 0.6 mm 5 m/S 747 mmHg 75%

    übermorgen, 23 Oktober, Dienstag

    Zeit Temperatur Niederschläge Wind Luftdruck Luftfeuchtigkeit
    00:00 0°C° 0.6 mm 5 m/S 747 mmHg 77%
    01:00 0°C° 0.6 mm 5 m/S 746 mmHg 79%
    02:00 0°C° 0.4 mm 5 m/S 746 mmHg 79%
    03:00 +1°C° 0.4 mm 5 m/S 745 mmHg 80%
    04:00 +1°C° 0.4 mm 5 m/S 745 mmHg 80%
    05:00 +1°C° 0.1 mm 4 m/S 744 mmHg 80%
    06:00 +1°C° 0.1 mm 4 m/S 744 mmHg 80%
    07:00 +1°C° 0.1 mm 4 m/S 744 mmHg 81%
    08:00 +3°C° 0 mm 4 m/S 743 mmHg 79%
    09:00 +3°C° 0 mm 4 m/S 743 mmHg 78%
    10:00 +2°C° 0 mm 5 m/S 743 mmHg 77%
    11:00 +3°C° 0 mm 5 m/S 743 mmHg 75%
    12:00 +3°C° 0 mm 5 m/S 743 mmHg 73%
    13:00 +5°C° 0 mm 5 m/S 743 mmHg 71%
    14:00 +4°C° 0 mm 4 m/S 743 mmHg 73%
    15:00 +4°C° 0 mm 4 m/S 743 mmHg 75%
    16:00 +3°C° 0 mm 4 m/S 743 mmHg 78%
    17:00 +2°C° 0 mm 3 m/S 743 mmHg 80%
    18:00 +2°C° 0 mm 3 m/S 743 mmHg 82%
    19:00 +2°C° 0 mm 3 m/S 743 mmHg 85%
    20:00 +2°C° 0 mm 3 m/S 743 mmHg 86%
    21:00 +3°C° 0 mm 4 m/S 743 mmHg 87%
    22:00 +4°C° 0 mm 4 m/S 743 mmHg 88%
    23:00 +4°C° 0.1 mm 4 m/S 743 mmHg 87%

    24 Oktober, Mittwoch

    Zeit Temperatur Niederschläge Wind Luftdruck Luftfeuchtigkeit
    00:00 +4°C° 0.1 mm 4 m/S 743 mmHg 86%
    01:00 +5°C° 0.1 mm 4 m/S 742 mmHg 85%
    02:00 +4°C° 0.4 mm 4 m/S 742 mmHg 84%
    03:00 +4°C° 0.4 mm 4 m/S 742 mmHg 83%
    04:00 +4°C° 0.4 mm 4 m/S 742 mmHg 83%
    05:00 +4°C° 0.3 mm 4 m/S 742 mmHg 83%
    06:00 +3°C° 0.3 mm 4 m/S 742 mmHg 84%
    07:00 +3°C° 0.3 mm 4 m/S 741 mmHg 84%
    08:00 +4°C° 0 mm 4 m/S 742 mmHg 83%
    09:00 +4°C° 0 mm 4 m/S 742 mmHg 81%
    10:00 +5°C° 0 mm 4 m/S 742 mmHg 79%
    11:00 +5°C° 0.2 mm 4 m/S 742 mmHg 81%
    12:00 +5°C° 0.2 mm 3 m/S 742 mmHg 83%
    13:00 +7°C° 0.2 mm 3 m/S 742 mmHg 86%
    14:00 +7°C° 0.3 mm 3 m/S 742 mmHg 87%
    15:00 +7°C° 0.3 mm 3 m/S 742 mmHg 89%
    16:00 +7°C° 0.3 mm 3 m/S 742 mmHg 90%
    17:00 +7°C° 0.1 mm 3 m/S 742 mmHg 90%
    18:00 +7°C° 0.1 mm 3 m/S 742 mmHg 89%
    19:00 +7°C° 0.1 mm 3 m/S 742 mmHg 89%
    20:00 +7°C° 0 mm 3 m/S 742 mmHg 89%
    21:00 +5°C° 0 mm 3 m/S 742 mmHg 90%
    22:00 +5°C° 0 mm 3 m/S 743 mmHg 91%
    23:00 +5°C° 0 mm 3 m/S 743 mmHg 91%

    25 Oktober, Donnerstag

    Zeit Temperatur Niederschläge Wind Luftdruck Luftfeuchtigkeit
    00:00 +5°C° 0 mm 3 m/S 743 mmHg 92%
    01:00 +5°C° 0 mm 3 m/S 743 mmHg 92%
    02:00 +5°C° 0 mm 3 m/S 743 mmHg 92%
    03:00 +5°C° 0 mm 3 m/S 744 mmHg 93%
    04:00 +5°C° 0 mm 3 m/S 744 mmHg 93%
    05:00 +4°C° 0 mm 3 m/S 744 mmHg 92%
    06:00 +4°C° 0 mm 3 m/S 744 mmHg 92%
    07:00 +4°C° 0 mm 3 m/S 745 mmHg 92%
    08:00 +5°C° 0 mm 3 m/S 745 mmHg 88%
    09:00 +6°C° 0 mm 4 m/S 745 mmHg 84%
    10:00 +7°C° 0 mm 4 m/S 746 mmHg 80%
    11:00 +7°C° 0 mm 4 m/S 746 mmHg 79%
    12:00 +9°C° 0 mm 3 m/S 746 mmHg 77%
    13:00 +9°C° 0 mm 3 m/S 746 mmHg 76%
    14:00 +9°C° 0 mm 3 m/S 747 mmHg 80%
    15:00 +8°C° 0 mm 2 m/S 747 mmHg 84%
    16:00 +7°C° 0 mm 2 m/S 747 mmHg 88%
    17:00 +7°C° 0 mm 2 m/S 747 mmHg 89%
    18:00 +7°C° 0 mm 2 m/S 747 mmHg 90%
    19:00 +7°C° 0 mm 2 m/S 747 mmHg 90%
    20:00 +7°C° 0.3 mm 3 m/S 747 mmHg 91%
    21:00 +7°C° 0.3 mm 3 m/S 747 mmHg 92%
    22:00 +7°C° 0.3 mm 3 m/S 746 mmHg 93%
    23:00 +7°C° 0 mm 3 m/S 746 mmHg 93%

    26 Oktober, Freitag

    Zeit Temperatur Niederschläge Wind Luftdruck Luftfeuchtigkeit
    00:00 +5°C° 0 mm 3 m/S 746 mmHg 93%
    01:00 +5°C° 0 mm 3 m/S 746 mmHg 92%
    02:00 +5°C° 0 mm 3 m/S 745 mmHg 91%
    03:00 +4°C° 0 mm 3 m/S 745 mmHg 90%
    04:00 +4°C° 0 mm 3 m/S 745 mmHg 88%
    05:00 +4°C° 0 mm 3 m/S 745 mmHg 85%
    06:00 +4°C° 0 mm 3 m/S 744 mmHg 82%
    07:00 +4°C° 0 mm 4 m/S 744 mmHg 79%
    08:00 +5°C° 0 mm 4 m/S 744 mmHg 75%
    09:00 +6°C° 0 mm 4 m/S 743 mmHg 71%
    10:00 +7°C° 0 mm 5 m/S 743 mmHg 67%
    11:00 +8°C° 0 mm 5 m/S 742 mmHg 63%
    12:00 +9°C° 0 mm 5 m/S 742 mmHg 59%
    13:00 +10°C° 0 mm 5 m/S 741 mmHg 55%
    14:00 +10°C° 0 mm 5 m/S 741 mmHg 56%
    15:00 +9°C° 0 mm 5 m/S 741 mmHg 57%
    16:00 +9°C° 0 mm 5 m/S 740 mmHg 58%
    17:00 +8°C° 0 mm 5 m/S 740 mmHg 59%
    18:00 +8°C° 0 mm 5 m/S 740 mmHg 61%
    19:00 +8°C° 0 mm 5 m/S 740 mmHg 62%
    20:00 +8°C° 0.2 mm 5 m/S 740 mmHg 67%
    21:00 +7°C° 0.2 mm 5 m/S 740 mmHg 73%
    22:00 +7°C° 0.2 mm 4 m/S 739 mmHg 78%
    23:00 +7°C° 0.9 mm 4 m/S 739 mmHg 82%
    Mehr zeigen